weather.gov     
National Weather Service

Regional Weather Roundup
NWS Homepage
This page is being discontinued on March 12, 2014.
The same data is available at this site. Please update your bookmarks.
Thank you, and we apologize for the inconvenience.
Please send an email to SR-SRH.Webmaster@noaa.gov with any concerns.


Current Version
Previous Version:    01  02  03  04  05  06  07  08  09  10  11  12  13  14  15  16  17  18  19  20  21  22  23  24  25  26  27  28  29  30  
   31  
[Printable]
289
ASUS44 KLZK 232205
RWRLZK

WEATHER ROUNDUP FOR ARKANSAS
NATIONAL WEATHER SERVICE LITTLE ROCK AR
500 PM CDT TUE SEP 23 2014

NOTE: "FAIR" INDICATES FEW OR NO CLOUDS BELOW 12,000 FEET WITH NO
SIGNIFICANT WEATHER AND/OR OBSTRUCTIONS TO VISIBILITY.

ARZ001-003-010-029-232300-
NORTHWEST ARKANSAS

CITY           SKY/WX    TMP DP  RH WIND       PRES   REMARKS
FAYETTEVILLE   SUNNY     74  49  41 SE7       30.17F
FORT SMITH     SUNNY     78  46  32 E8        30.14F
HARRISON       MOSUNNY   70  48  45 SE6       30.20F
BENTONVILLE    SUNNY     75  46  35 S5        30.18F
ROGERS         SUNNY     75  45  34 S6        30.18F
SILOAM SPGS    SUNNY     75  48  38 S6        30.17F
HIGHFILL       SUNNY     75  49  39 E8        30.17F
SPRINGDALE     MOSUNNY   75  50  41 SE9       30.19F
$$

ARZ004-005-016-232300-
NORTH CENTRAL ARKANSAS

CITY           SKY/WX    TMP DP  RH WIND       PRES   REMARKS
BATESVILLE     SUNNY     81  43  26 E10       30.17S
FLIPPIN        MOSUNNY   75  45  33 NE6       30.19F
MTN HOME       MOSUNNY   74  45  35 SE7       30.18F
$$

ARZ040-041-232300-
WEST CENTRAL ARKANSAS

CITY           SKY/WX    TMP DP  RH WIND       PRES   REMARKS
MENA           SUNNY     77  52  41 CALM      30.16F
MOUNT IDA      MOSUNNY   77  47  34 CALM      30.14F
$$

ARZ009-017-025-026-028-232300-
NORTHEAST ARKANSAS

CITY           SKY/WX    TMP DP  RH WIND       PRES   REMARKS
CORNING          N/A     77  46  33 NE9       30.19F
JONESBORO      SUNNY     79  44  28 NE13G18   30.17F
NEWPORT        SUNNY     80  37  21 E14       30.18F
WALNUT RIDGE   SUNNY     75  45  33 NE10      30.18S
BLYTHEVILLE    SUNNY     79  48  33 E6        30.18F
$$

ARZ022-023-033-042-044-232300-
CENTRAL ARKANSAS

CITY           SKY/WX    TMP DP  RH WIND       PRES   REMARKS
LITTLE ROCK    MOSUNNY   79  43  27 E7        30.15F
N LITTLE ROCK  MOSUNNY   80  47  31 E8        30.15F
JACKSONVILLE   SUNNY     80  45  28 NE9       30.15F
SEARCY           N/A    N/A N/A N/A MISG        N/A
HOT SPRINGS    SUNNY     79  44  28 E7        30.14F
RUSSELLVILLE   MOSUNNY   78  47  33 VRB5      30.15F
CLINTON        FAIR      77  45  31 SE3       30.16F
$$

ARZ036-232300-
EAST ARKANSAS

CITY           SKY/WX    TMP DP  RH WIND       PRES   REMARKS
WEST MEMPHIS   SUNNY     78  43  28 E14       30.14F
$$

ARZ050-053-066-070-073-232300-
SOUTHWEST ARKANSAS

CITY           SKY/WX    TMP DP  RH WIND       PRES   REMARKS
ARKADELPHIA    FAIR      79  52  38 VRB3      30.14F
CAMDEN         MOSUNNY   81  45  28 NE7       30.12S
TEXARKANA      SUNNY     79  50  36 NE8       30.12F
EL DORADO      MOSUNNY   80  51  36 N7        30.12F
DE QUEEN       MOSUNNY   78  52  40 E7        30.12F
$$

ARZ056-057-069-232300-
SOUTHEAST ARKANSAS

CITY           SKY/WX    TMP DP  RH WIND       PRES   REMARKS
PINE BLUFF     SUNNY     79  43  27 NE6       30.13F
STUTTGART      SUNNY     79  43  27 NE10      30.15F
MONTICELLO     SUNNY     81  42  25 NE10      30.12F

$$






U.S. Dept. of Commerce
NOAA National Weather Service
1325 East West Highway
Silver Spring, MD 20910
E-mail: w-nws.webmaster@noaa.gov
Page last modified: May 16, 2007
NATIONAL WEATHER SERVICE: for Safety, for Work, for Fun - FOR LIFE